Regional Weather Roundup
Issued by NWS

Home | Current Version | Previous Version | Text Only | Print | Product List | Glossary Off
Versions: 1 2 3 4 5 6 7 8 9 10 11 12 13 14 15 16 17 18 19 20 21 22 23 24 25 26 27 28 29 30 31 32 33 34 35 36 37 38 39 40 41 42 43 44 45 46 47 48 49 50

000
ASUS43 KLOT 261903
RWRIL

ILLINOIS REGIONAL WEATHER ROUNDUP
NATIONAL WEATHER SERVICE CHICAGO/ROMEOVILLE IL
200 PM CDT WED APR 26 2017

NOTE: "FAIR" INDICATES FEW OR NO CLOUDS BELOW 12,000 FEET WITH NO
SIGNIFICANT WEATHER AND/OR OBSTRUCTIONS TO VISIBILITY.

* THESE STATIONS ARE NOT UNDER NWS QUALITY CONTROL. THEY ALSO MAY NOT
  REPORT WEATHER SUCH AS PRECIPITATION OR FOG.

ILZ001-002-007-009-015-016-024-262000-
NORTHWEST ILLINOIS

CITY           SKY/WX    TMP DP  RH WIND       PRES   REMARKS
MOLINE         CLOUDY    54  48  80 SW9       29.51S
STERLING*      CLOUDY    60  55  83 SW12      29.51R
$$

ILZ003-004-008-010-011-017-018-262000-
NORTH CENTRAL ILLINOIS

CITY           SKY/WX    TMP DP  RH WIND       PRES   REMARKS
ROCKFORD       CLOUDY    68  58  70 SW13      29.48S
FREEPORT*      CLOUDY    61  55  82 SW15G22   29.47F
$$

ILZ005-006-012>014-019>023-262000-
NORTHEAST ILLINOIS

CITY           SKY/WX    TMP DP  RH WIND       PRES   REMARKS
CHICAGO-OHARE  PTSUNNY   72  56  57 S15G22    29.47S
CHICAGO-MIDWAY PTSUNNY   75  57  53 SW14G28   29.48R
AURORA         CLOUDY    72  59  63 SW17G23   29.49R
LANSING*       MOSUNNY   76  60  56 SW18G28   29.49R
WAUKEGAN       MOSUNNY   73  59  61 SW12G24   29.45S
DUPAGE AIRPORT CLOUDY    71  58  63 SW18      29.48R
WHEELING       CLOUDY    71  58  63 SW13G26   29.49R
NORTHERLY ISL    N/A     74  53  48 W12         N/A
$$

LMZ740>746-262000-
SOUTHERN LAKE MICHIGAN

STATION/POSITION SKY/WX   TEMP    WIND        PRES    VSBY  WAVE
                          AIR SEA DIR/SP/G                  HT/PER
                          (F)     (DEG/KT/KT) (MB)    (MI)  (FT/S)
SOUTHERN BUOY              49 41  170/ 10/ 14  997.6          2/ 4
HARRISON CRIB              72     240/ 21/ 27   N/A
BURNHAM HARBOR             74     270/ 11/ 20   N/A
CALUMET HARBOR             75     230/ 13/ 21  998.0R
BURNS HARBOR               74     240/ 22/ 26  998.6R
MICHIGAN CITY              72     220/ 23/ 27   N/A
MICHIGAN CITY 6N           61 49                N/A           2/ 3
ST. JOSEPH                 56 49  270/  8/ 10  998.4R         2/ 3
$$

ILZ025>027-034>036-040-047-049-050-058-095>099-262000-
WEST-CENTRAL ILLINOIS

CITY           SKY/WX    TMP DP  RH WIND       PRES   REMARKS
QUINCY         CLOUDY    52  50  93 NW8       29.56S FOG
$$

ILZ028>032-037-038-041>044-048-051>054-059>061-262000-
CENTRAL ILLINOIS

CITY           SKY/WX    TMP DP  RH WIND       PRES   REMARKS
BLOOMINGTON    CLOUDY    72  57  59 SW16      29.52F
DECATUR        CLOUDY    76  57  51 SW23G31   29.53F
PEORIA         LGT RAIN  64  60  87 S10       29.52S
SPRINGFIELD    CLOUDY    72  55  55 SW15G23   29.53F
TAYLORVILLE    NOT AVBL
$$

ILZ033-039-045-046-055>057-062-063-262000-
EAST-CENTRAL ILLINOIS

CITY           SKY/WX    TMP DP  RH WIND       PRES   REMARKS
CHAMPAIGN      PTSUNNY   80  50  34 SW26G37   29.53S HX  80
MATTOON        MOSUNNY   76  55  48 SW14G21   29.55F
$$

ILZ079-100>102-262000-
SOUTHWEST ILLINOIS

CITY           SKY/WX    TMP DP  RH WIND       PRES   REMARKS
ALTON          RAIN      64  59  82 SW14G21   29.57F
BELLEVILLE     TSTM      68  63  83 CALM      29.55S
CAHOKIA*       RAIN      65  60  84 SW7       29.57S
$$

ILZ064>066-069>071-074>076-080>082-084>086-088>090-092>094-262000-
SOUTH-CENTRAL ILLINOIS

CITY           SKY/WX    TMP DP  RH WIND       PRES   REMARKS
CARBONDALE     CLOUDY    74  66  76 S12       29.55F
MARION         PTSUNNY   77  64  65 S12       29.56F
MT. VERNON     CLOUDY    77  63  61 S12       29.56F
$$

ILZ067-068-072-073-078-083-087-091-262000-
SOUTHEAST ILLINOIS

CITY           SKY/WX    TMP DP  RH WIND       PRES   REMARKS
LAWRENCEVILLE  CLOUDY    83  61  47 SW17G28   29.55F HX  83
$$

ABBREVIATIONS USED IN REMARKS
   TC - TEMPERATURE IN CELSIUS
  WCI - WIND CHILL INDEX
   HX - HEAT INDEX
  VSB - VISIBILITY
$$





USA.gov is the U.S. government's official web portal to all federal, state and local government web resources and services.